Location: Arcusa
(42.3167°N, 0.0833°W)
Time: 19:44:31
(UTC+00:00)

NOSS 3-2 (C) - Pass Details

Date: 25 January 2020
Orbit: 813 x 1399 km, 63.4° (Epoch: 10 February)

Event Time Altitude Azimuth Distance (km) Brightness Sun altitude
Exits shadow 05:40:27 21° 311° (NW) 2,460 5.1 -18.5°
Maximum altitude 05:45:42 55° 242° (WSW) 1,539 4.2 -17.6°
Drops below altitude 10° 05:53:55 10° 167° (SSE) 3,448 6.7 -16.1°
Sets 05:56:57 0° 164° (SSE) 4,440 7.3 -15.5°
